Wind_Speed
67 73 71 72 80 78 65 60 56 58 53 40 19 18 18 9 9 13 7 8 7 6 16 28 33 35 35 35 35 39 34 38 52 50 51 50 49 47 46 44 43 43 41 39 38 36 36
66 73 75 75 80 77 67 62 64 71 65 26 11 15 16 13 8 8 8 9 8 6 10 26 30 38 38 32 35 34 31 29 36 50 49 47 47 46 45 43 43 42 42 41 40 39 38
66 71 76 75 80 75 67 66 72 80 65 16 4 3 20 19 15 11 8 6 8 4 10 25 32 36 42 42 43 41 33 33 34 35 43 50 46 43 43 43 43 43 43 43 42 42 41
67 71 76 75 80 72 66 68 74 75 63 34 14 31 30 26 26 21 11 6 7 5 12 25 34 31 37 32 39 39 38 36 32 28 26 33 40 48 47 44 43 43 43 43 43 43 43
66 70 75 74 79 70 66 67 69 66 65 53 46 39 33 31 24 19 18 18 16 16 15 20 27 36 36 29 29 34 35 37 37 34 33 29 29 31 36 44 47 47 45 44 44 44 44
65 68 73 73 78 68 64 64 63 56 53 46 41 38 33 26 23 21 26 27 27 28 20 19 22 24 26 28 31 29 33 31 31 29 29 26 28 30 32 34 39 40 43 45 47 44 45
64 67 71 72 75 69 62 62 61 58 42 42 36 34 26 23 22 28 34 29 25 29 28 28 29 26 26 18 24 25 28 31 30 28 26 23 24 25 27 30 32 34 34 36 36 35 34
64 65 68 71 71 72 60 59 58 54 55 34 35 27 24 25 20 27 29 28 31 28 29 32 27 25 20 20 22 22 23 21 20 22 23 15 13 17 21 23 24 24 25 26 26 26 27
64 63 64 68 67 70 59 57 58 55 50 51 31 28 24 21 22 21 27 27 30 29 29 28 26 23 20 17 19 18 20 18 16 17 18 16 14 12 14 15 16 18 20 21 22 24 28
60 63 62 64 65 67 62 55 56 56 51 49 45 31 23 20 19 20 20 20 20 19 20 26 24 19 19 19 21 21 21 17 17 15 15 13 12 12 12 14 16 18 19 21 23 24 28
54 60 60 60 63 63 63 53 53 55 56 51 46 39 34 27 15 10 9 8 7 6 10 19 21 21 21 19 20 21 23 19 15 13 12 11 10 10 11 13 15 18 20 23 24 26 27
52 55 59 58 59 58 61 56 49 50 50 53 52 45 39 31 27 23 21 19 15 11 16 17 21 22 20 20 19 21 21 18 16 13 11 10 8 9 11 14 17 19 22 23 25 26 24
50 52 56 55 55 56 55 57 48 47 47 45 46 44 43 42 35 28 27 25 21 21 26 22 23 24 22 21 20 19 18 16 13 11 9 7 8 10 14 18 19 20 19 16 14 15 17
50 49 52 54 52 52 50 52 51 43 45 47 44 42 40 39 38 39 37 32 33 33 29 28 26 23 21 22 22 17 12 11 10 8 8 10 9 9 13 6 5 6 8 10 13 13 15
49 51 56 50 49 48 49 46 50 46 41 43 45 42 40 38 37 35 33 30 35 36 37 34 31 27 21 17 11 12 11 11 10 9 5 3 3 5 3 5 7 9 9 9 12 12 11
49 54 55 53 46 45 45 42 44 45 41 37 39 40 38 38 38 37 31 36 35 34 32 30 29 26 22 19 16 14 11 9 7 6 7 6 4 3 5 8 9 8 7 6 7 6 3
46 50 50 50 50 42 41 42 37 41 40 35 30 32 35 34 36 35 30 33 32 31 29 28 26 24 21 18 16 15 15 13 10 7 4 0 1 0 2 6 5 2 1 2 6 7 4
42 45 45 48 47 41 38 38 38 34 36 36 29 26 28 30 32 32 30 30 30 30 29 27 25 24 21 18 17 15 15 12 10 9 10 11 11 10 9 8 6 6 9 10 8 6 5
37 42 42 41 42 41 38 34 34 32 29 32 31 24 23 23 25 27 28 29 28 28 29 30 30 27 29 25 23 23 22 19 18 17 15 13 13 11 10 12 13 14 11 7 4 3 5
35 38 39 42 40 40 40 29 28 30 26 25 27 26 20 18 18 21 22 24 26 25 25 24 23 23 24 25 24 22 21 20 20 20 19 18 16 16 15 13 12 11 9 7 6 5 5
35 37 40 39 38 37 38 37 23 25 27 24 21 23 23 18 12 14 16 17 18 18 19 19 19 20 20 20 20 20 19 19 18 18 16 15 15 13 11 8 9 11 9 9 10 11 13
31 33 39 39 37 34 35 34 29 22 23 24 22 16 19 19 16 11 9 10 12 13 14 14 15 15 14 15 15 16 15 14 13 12 13 11 10 8 7 7 8 8 9 10 11 13 17
33 36 37 37 33 32 31 33 28 21 16 15 20 20 13 13 15 13 11 9 8 9 9 10 12 13 13 14 13 10 10 9 9 8 7 6 8 8 10 10 11 13 16 19 20 23 24
41 40 37 36 33 28 31 29 30 24 21 16 15 17 19 13 11 13 12 10 10 9 8 9 10 10 11 11 12 12 13 11 8 8 8 7 9 12 13 15 16 18 21 24 26 29 32
41 35 34 33 33 29 27 31 29 26 24 23 15 15 17 18 16 13 13 12 12 11 11 11 11 12 12 11 9 9 9 8 8 8 7 6 7 10 14 18 19 23 25 26 30 32 34
35 33 31 33 32 31 29 29 29 28 24 23 21 15 11 17 16 17 16 15 15 13 12 12 13 13 14 15 15 13 11 13 10 9 13 11 11 12 12 14 14 15 17 19 21 26 26
37 38 36 33 32 30 30 30 28 26 27 23 21 22 20 14 16 18 17 17 16 16 16 16 16 17 17 15 16 18 16 18 16 15 15 18 19 20 22 22 20 25 24 27 28 32 32
43 41 40 39 34 30 30 31 29 26 25 26 25 20 23 25 21 19 20 18 17 15 15 15 15 17 18 20 20 21 21 22 23 22 23 22 24 19 21 23 22 20 24 27 31 32 35
50 47 44 42 41 34 33 33 32 28 25 27 28 26 23 23 26 25 24 24 22 20 18 18 19 18 18 18 17 17 18 17 18 16 20 21 19 18 19 22 23 25 27 28 30 31 32
Wind_Direction
3 3 1 359 357 358 360 359 355 348 339 328 303 283 242 147 139 132 118 156 159 163 191 192 186 192 195 205 212 205 204 223 221 218 221 222 225 227 228 230 233 238 240 243 245 246 247
3 3 3 2 0 2 5 3 358 350 341 348 288 241 176 171 158 130 113 143 153 178 179 177 179 185 190 198 201 200 199 211 217 219 216 221 224 227 230 231 234 238 240 244 246 247 249
5 4 5 4 3 6 9 7 5 359 0 -0 328 157 145 128 131 120 110 143 159 178 163 169 174 185 189 192 194 200 183 193 213 220 221 223 222 224 228 231 233 237 240 243 246 248 248
7 6 7 7 6 10 14 12 12 18 19 39 101 113 114 111 106 102 99 80 82 142 147 166 179 179 182 188 198 200 186 195 205 200 212 226 229 227 222 227 231 235 239 242 243 246 249
8 7 8 8 8 14 17 17 20 40 44 65 88 96 97 108 92 83 77 89 95 99 126 149 173 186 187 181 186 188 201 211 216 226 228 223 225 228 234 234 232 233 236 241 242 245 247
10 8 9 10 11 17 21 21 26 38 46 59 73 84 88 103 91 85 94 79 88 89 123 131 155 171 172 192 200 195 193 195 197 207 214 218 222 226 229 232 234 239 243 245 249 248 254
11 10 10 11 13 18 25 25 27 35 47 51 68 76 88 89 82 87 75 79 90 91 105 111 117 144 134 142 166 169 173 186 191 194 197 203 215 220 226 228 231 234 241 246 248 252 253
11 12 11 13 15 17 25 30 31 36 41 54 57 64 62 68 72 75 70 67 77 87 111 105 119 128 136 158 157 159 163 168 182 193 191 195 209 215 220 224 229 234 240 246 251 253 256
12 13 12 14 16 19 23 31 34 37 43 44 52 52 58 61 63 70 72 67 67 65 82 95 103 117 129 134 156 158 154 158 171 176 184 200 206 205 208 211 219 230 237 245 251 256 263
12 14 13 15 16 19 21 30 37 41 43 46 50 56 58 63 61 49 59 66 63 71 72 74 91 111 123 135 147 162 165 158 161 163 168 179 187 199 208 221 233 241 247 253 258 262 267
11 14 14 16 17 20 21 28 38 44 47 48 46 54 59 60 51 36 25 16 354 33 92 89 86 97 125 135 135 149 156 156 150 150 157 168 180 199 217 230 242 248 252 258 264 267 270
11 13 15 16 19 20 21 22 34 43 47 50 50 50 54 58 60 67 66 61 69 106 115 107 104 102 94 127 124 130 134 135 140 147 155 167 184 210 230 242 250 258 262 265 272 277 276
9 12 14 16 18 20 22 22 29 40 44 45 46 50 54 60 63 62 67 70 76 95 112 115 119 117 109 115 121 128 131 137 142 154 165 187 219 243 252 256 260 266 268 260 262 269 275
6 9 12 15 17 21 22 23 25 33 43 46 45 43 45 54 57 64 68 75 84 90 101 109 117 120 130 127 131 130 132 139 152 177 193 213 233 251 270 263 229 239 251 270 276 270 273
2 6 10 10 16 19 22 23 24 30 39 49 51 52 53 57 60 60 61 69 76 86 97 105 106 109 119 133 141 143 145 156 175 193 186 240 188 180 226 249 258 252 257 262 266 269 275
4 3 3 5 9 17 21 23 25 26 35 50 56 58 62 66 69 69 67 70 75 82 87 94 99 105 111 120 124 126 139 142 136 141 155 163 181 233 258 261 269 259 261 262 269 269 276
1 1 0 3 6 13 19 23 24 25 30 42 57 61 62 60 65 72 76 71 76 79 83 88 92 98 102 103 106 111 117 119 123 127 121 194 276 298 95 93 95 72 328 135 119 116 92
357 359 359 1 4 8 14 19 23 25 24 33 45 57 59 60 60 65 64 69 71 74 75 76 77 83 85 92 99 102 101 101 107 111 100 96 91 84 83 76 71 82 113 112 105 93 31
353 355 357 356 359 4 8 15 19 23 26 24 34 45 54 54 58 60 61 65 71 75 81 83 81 80 75 79 79 88 93 89 84 83 85 85 84 78 82 84 80 81 80 83 78 42 36
348 349 352 354 355 356 5 8 13 20 21 24 23 30 45 48 46 54 58 62 66 68 76 80 82 77 75 74 77 80 81 78 79 86 77 71 67 74 91 99 69 52 39 42 36 25 34
342 342 343 348 351 351 355 4 7 10 18 19 20 17 25 36 49 35 43 50 54 59 63 63 66 71 74 75 74 72 69 65 60 59 65 63 59 58 64 55 39 36 30 18 10 0 353
328 335 337 338 342 345 349 353 3 1 7 10 16 12 13 16 23 38 28 24 29 29 30 34 36 39 53 63 57 51 48 49 43 36 27 22 27 34 23 18 0 343 339 338 329 324 325
318 325 329 331 333 336 342 347 355 352 358 353 3 9 1 2 2 13 23 20 10 8 7 2 2 5 4 8 8 16 21 18 11 16 3 342 327 319 319 309 306 320 316 316 316 315 314
310 316 318 322 324 325 330 335 340 349 339 343 346 356 359 347 340 344 351 4 4 2 359 356 347 343 344 345 341 343 341 343 346 341 330 311 284 278 279 282 290 299 302 304 304 306 305
304 312 314 308 313 311 318 325 327 331 340 332 328 333 343 349 349 330 321 328 336 342 345 350 352 348 343 344 349 349 354 358 354 347 350 346 312 297 287 280 288 287 287 290 292 298 300
300 308 310 304 304 307 307 313 317 318 326 335 328 315 312 325 329 339 339 315 306 310 315 318 321 324 325 326 327 327 329 328 329 326 316 318 316 315 310 317 313 305 298 297 300 300 303
293 299 302 300 297 298 299 302 307 307 315 321 329 324 307 302 307 315 321 331 324 311 301 301 302 304 303 303 305 307 311 306 310 308 307 309 312 315 311 312 311 310 310 310 306 306 304
287 291 294 293 290 288 288 294 298 298 304 311 313 319 324 309 296 295 299 306 310 314 321 320 318 306 307 304 302 297 298 296 297 298 298 297 301 301 302 309 313 321 320 318 318 318 311
280 284 286 291 284 279 276 283 290 288 291 299 304 307 311 317 314 295 291 293 294 297 294 303 306 308 310 314 314 316 318 318 313 311 293 302 298 311 314 314 319 322 323 327 327 327 326
Height
5742 5727 5710 5693 5674 5652 5632 5615 5598 5581 5567 5558 5555 5553 5556 5559 5561 5565 5567 5569 5572 5576 5579 5585 5597 5609 5619 5625 5636 5646 5653 5658 5667 5677 5686 5695 5703 5709 5715 5722 5727 5732 5736 5740 5744 5748 5751
5741 5725 5707 5691 5670 5650 5631 5614 5594 5570 5545 5534 5533 5538 5547 5556 5562 5567 5570 5571 5573 5576 5579 5582 5594 5605 5616 5626 5633 5643 5650 5655 5662 5671 5680 5689 5697 5703 5710 5716 5721 5727 5730 5734 5737 5741 5745
5740 5724 5707 5690 5670 5650 5633 5614 5593 5564 5532 5523 5527 5533 5547 5556 5564 5570 5572 5572 5574 5576 5578 5583 5594 5603 5612 5621 5629 5638 5645 5650 5658 5667 5675 5683 5691 5698 5705 5710 5715 5720 5724 5728 5731 5734 5737
5740 5725 5709 5690 5671 5654 5637 5619 5598 5569 5540 5522 5526 5539 5552 5561 5571 5573 5574 5576 5577 5577 5579 5584 5593 5601 5608 5616 5625 5634 5641 5647 5656 5665 5672 5680 5687 5692 5698 5704 5709 5713 5717 5721 5725 5726 5730
5742 5728 5711 5693 5675 5659 5642 5626 5609 5588 5572 5558 5554 5559 5565 5572 5577 5578 5578 5579 5578 5579 5581 5587 5596 5603 5609 5616 5623 5631 5638 5646 5655 5663 5669 5675 5681 5687 5693 5698 5703 5706 5711 5714 5717 5719 5722
5744 5730 5715 5697 5681 5665 5650 5635 5620 5606 5595 5589 5585 5582 5584 5585 5585 5585 5584 5584 5584 5584 5587 5593 5599 5607 5611 5616 5621 5629 5636 5644 5653 5660 5667 5672 5677 5681 5686 5691 5696 5701 5705 5709 5710 5716 5716
5747 5734 5720 5704 5688 5672 5658 5645 5633 5621 5611 5607 5603 5600 5599 5597 5596 5593 5593 5592 5595 5594 5596 5598 5603 5608 5611 5618 5623 5629 5635 5644 5652 5658 5664 5670 5675 5679 5684 5687 5691 5696 5699 5703 5705 5707 5710
5752 5739 5725 5711 5695 5681 5668 5657 5646 5635 5625 5617 5615 5612 5610 5608 5607 5604 5602 5602 5602 5604 5605 5606 5609 5614 5617 5621 5627 5633 5639 5646 5652 5659 5665 5671 5675 5678 5682 5686 5689 5693 5696 5699 5701 5702 5703
5756 5744 5731 5718 5704 5690 5677 5666 5657 5647 5637 5630 5623 5620 5618 5617 5615 5615 5612 5613 5611 5612 5614 5616 5618 5622 5625 5629 5633 5638 5643 5648 5655 5659 5664 5670 5675 5677 5681 5684 5688 5691 5693 5695 5697 5697 5697
5760 5750 5738 5726 5712 5699 5687 5677 5667 5658 5649 5641 5634 5629 5626 5624 5624 5621 5620 5620 5620 5622 5623 5625 5626 5628 5631 5634 5637 5642 5646 5652 5656 5661 5665 5670 5674 5677 5680 5683 5686 5688 5690 5691 5692 5693 5692
5764 5755 5744 5733 5721 5709 5698 5687 5678 5668 5660 5652 5646 5639 5634 5630 5628 5626 5625 5624 5624 5626 5629 5632 5634 5635 5636 5641 5643 5646 5650 5655 5658 5663 5668 5671 5674 5677 5680 5682 5684 5686 5687 5687 5687 5687 5686
5769 5760 5751 5740 5729 5719 5708 5698 5689 5680 5671 5664 5657 5651 5645 5639 5637 5634 5629 5627 5625 5628 5630 5635 5638 5641 5643 5646 5648 5651 5654 5658 5662 5666 5668 5671 5674 5676 5678 5680 5681 5682 5683 5683 5682 5680 5678
5774 5764 5756 5746 5738 5728 5718 5708 5698 5691 5682 5675 5668 5662 5657 5650 5646 5641 5637 5635 5634 5632 5635 5639 5642 5644 5648 5651 5654 5657 5660 5662 5665 5668 5670 5672 5674 5675 5677 5677 5678 5678 5677 5677 5677 5674 5673
5778 5769 5760 5753 5744 5736 5726 5718 5709 5700 5693 5686 5679 5673 5668 5661 5657 5651 5649 5647 5643 5638 5641 5643 5647 5650 5653 5656 5658 5661 5664 5666 5668 5670 5671 5673 5675 5675 5675 5675 5675 5675 5675 5675 5673 5672 5672
5782 5774 5765 5758 5751 5742 5734 5726 5718 5710 5703 5696 5689 5683 5678 5672 5666 5663 5661 5661 5654 5651 5651 5652 5654 5656 5658 5660 5663 5664 5666 5668 5670 5671 5673 5673 5674 5675 5675 5675 5675 5674 5673 5673 5672 5671 5669
5785 5778 5770 5763 5755 5749 5741 5733 5726 5719 5712 5706 5699 5693 5689 5684 5677 5674 5671 5672 5667 5664 5662 5661 5661 5662 5664 5665 5666 5667 5669 5670 5671 5673 5674 5675 5675 5675 5674 5675 5674 5672 5672 5671 5669 5669 5668
5788 5781 5774 5767 5760 5753 5747 5740 5733 5727 5721 5714 5710 5704 5699 5695 5690 5684 5685 5681 5677 5675 5674 5674 5672 5671 5670 5672 5672 5672 5673 5674 5674 5675 5675 5675 5675 5675 5673 5673 5672 5672 5670 5670 5669 5670 5669
5789 5784 5778 5770 5764 5757 5752 5746 5740 5734 5729 5723 5718 5712 5708 5704 5701 5695 5692 5688 5685 5684 5682 5681 5681 5679 5678 5677 5676 5677 5678 5677 5676 5676 5676 5676 5675 5675 5675 5673 5672 5671 5671 5671 5671 5672 5670
5789 5785 5780 5774 5768 5761 5755 5751 5745 5740 5735 5730 5724 5719 5715 5712 5708 5705 5701 5698 5695 5692 5690 5689 5688 5687 5686 5685 5684 5682 5681 5681 5681 5680 5680 5679 5678 5677 5677 5678 5676 5675 5674 5673 5673 5672 5671
5789 5784 5780 5776 5770 5764 5758 5754 5749 5743 5740 5735 5731 5726 5720 5717 5715 5712 5708 5706 5703 5701 5698 5696 5695 5694 5693 5692 5691 5690 5689 5688 5686 5685 5685 5684 5682 5680 5679 5678 5678 5677 5676 5675 5674 5672 5671
5787 5784 5779 5775 5772 5766 5761 5756 5752 5747 5743 5740 5735 5732 5726 5721 5717 5717 5714 5711 5709 5706 5703 5702 5700 5698 5696 5695 5694 5694 5694 5693 5691 5690 5688 5687 5686 5684 5682 5681 5679 5678 5676 5675 5673 5671 5669
5784 5782 5778 5775 5771 5766 5762 5758 5754 5750 5746 5742 5737 5733 5731 5727 5722 5717 5716 5716 5713 5711 5709 5706 5704 5702 5701 5699 5697 5695 5694 5693 5692 5692 5690 5689 5688 5686 5684 5682 5681 5679 5677 5674 5672 5669 5666
5781 5778 5776 5772 5770 5766 5761 5757 5755 5751 5747 5742 5739 5736 5732 5730 5727 5723 5718 5715 5713 5712 5710 5708 5706 5705 5703 5702 5700 5698 5696 5695 5693 5691 5689 5687 5686 5685 5684 5681 5679 5679 5676 5674 5671 5669 5666
5776 5774 5772 5769 5766 5764 5760 5756 5752 5750 5747 5743 5739 5736 5734 5731 5728 5725 5722 5718 5715 5711 5710 5708 5706 5704 5703 5700 5700 5698 5696 5693 5692 5690 5688 5686 5684 5682 5681 5679 5678 5676 5673 5670 5667 5664 5660
5769 5768 5766 5765 5762 5760 5758 5755 5750 5747 5746 5742 5739 5736 5732 5731 5728 5726 5723 5720 5717 5714 5711 5710 5708 5706 5703 5701 5698 5696 5695 5694 5691 5689 5685 5683 5681 5680 5678 5676 5675 5671 5668 5666 5662 5660 5655
5762 5761 5760 5758 5757 5755 5753 5751 5748 5744 5741 5740 5737 5735 5731 5728 5727 5725 5722 5719 5717 5714 5711 5709 5707 5705 5703 5701 5699 5697 5694 5691 5690 5688 5685 5682 5680 5677 5674 5671 5669 5667 5663 5660 5657 5653 5649
5752 5754 5753 5752 5750 5749 5747 5746 5744 5741 5738 5736 5733 5732 5730 5726 5724 5722 5719 5717 5714 5711 5710 5707 5705 5703 5701 5699 5697 5695 5693 5690 5687 5685 5682 5679 5677 5674 5670 5666 5666 5662 5660 5655 5653 5651 5643
5741 5743 5745 5745 5743 5742 5741 5739 5738 5737 5733 5732 5730 5726 5726 5724 5721 5718 5716 5714 5711 5709 5707 5705 5703 5700 5697 5694 5692 5689 5688 5686 5683 5681 5677 5675 5672 5670 5667 5663 5660 5657 5653 5650 5646 5640 5634
5730 5730 5733 5735 5736 5733 5732 5732 5731 5730 5728 5726 5723 5721 5720 5718 5718 5715 5712 5710 5708 5705 5703 5701 5699 5697 5695 5692 5689 5687 5685 5683 5680 5677 5674 5671 5668 5665 5663 5659 5655 5650 5647 5643 5638 5633 5627